Time,TemperatureF,DewpointF,PressureIn,WindDirection,WindDirectionDegrees,WindSpeedMPH,WindSpeedGustMPH,Humidity,HourlyPrecipIn,Conditions,Clouds,dailyrainin,SoftwareType,DateUTC
2013-05-15 00:06:00,54.0,44.4,29.74,WNW,292,0.0,-999.0,70,-99.99,,,0.00,Acu-Link.com,2013-05-15 07:06:00,
2013-05-15 00:21:00,53.8,44.2,29.74,SSW,202,4.7,-999.0,70,-99.99,,,0.00,Acu-Link.com,2013-05-15 07:21:00,
2013-05-15 00:36:00,54.1,44.2,29.74,WNW,292,8.9,-999.0,69,-99.99,,,0.00,Acu-Link.com,2013-05-15 07:36:00,
2013-05-15 00:51:00,54.3,43.6,29.74,SW,225,4.7,-999.0,67,-99.99,,,0.00,Acu-Link.com,2013-05-15 07:51:00,
2013-05-15 01:07:00,54.1,43.4,29.74,SW,225,7.8,-999.0,67,-99.99,,,0.00,Acu-Link.com,2013-05-15 08:07:00,
2013-05-15 01:22:00,54.9,43.4,29.74,West,270,6.8,-999.0,65,-99.99,,,0.00,Acu-Link.com,2013-05-15 08:22:00,
2013-05-15 01:37:00,54.0,43.3,29.74,South,180,2.7,-999.0,67,-99.99,,,0.00,Acu-Link.com,2013-05-15 08:37:00,
2013-05-15 01:52:00,53.8,43.1,29.73,West,270,6.3,-999.0,67,-99.99,,,0.00,Acu-Link.com,2013-05-15 08:52:00,
2013-05-15 02:08:00,53.6,42.9,29.73,SSW,202,4.2,-999.0,67,-99.99,,,0.00,Acu-Link.com,2013-05-15 09:08:00,
2013-05-15 02:23:00,53.1,42.4,29.73,WNW,292,3.2,-999.0,67,-99.99,,,0.00,Acu-Link.com,2013-05-15 09:23:00,
2013-05-15 02:38:00,52.7,42.8,29.73,West,270,4.7,-999.0,69,-99.99,,,0.00,Acu-Link.com,2013-05-15 09:38:00,
2013-05-15 02:53:00,52.0,43.3,29.74,SW,225,5.8,-999.0,72,-99.99,,,0.00,Acu-Link.com,2013-05-15 09:53:00,
2013-05-15 03:08:00,51.6,43.2,29.73,SW,225,4.2,-999.0,73,-99.99,,,0.00,Acu-Link.com,2013-05-15 10:08:00,
2013-05-15 03:23:00,51.6,43.2,29.74,SW,225,3.2,-999.0,73,-99.99,,,0.00,Acu-Link.com,2013-05-15 10:23:00,
2013-05-15 03:39:00,51.3,43.3,29.75,West,270,5.8,-999.0,74,-99.99,,,0.00,Acu-Link.com,2013-05-15 10:39:00,
2013-05-15 03:54:00,51.1,43.5,29.75,NW,315,5.3,-999.0,75,-99.99,,,0.00,Acu-Link.com,2013-05-15 10:54:00,
2013-05-15 04:09:00,50.4,43.8,29.74,NNE,22,2.7,-999.0,78,-99.99,,,0.00,Acu-Link.com,2013-05-15 11:09:00,
2013-05-15 04:24:00,50.0,43.4,29.75,WNW,292,2.2,-999.0,78,-99.99,,,0.00,Acu-Link.com,2013-05-15 11:24:00,
2013-05-15 04:39:00,49.6,43.4,29.74,ENE,67,2.2,-999.0,79,-99.99,,,0.00,Acu-Link.com,2013-05-15 11:39:00,
2013-05-15 05:25:00,49.1,43.5,29.74,WNW,292,1.1,-999.0,81,-99.99,,,0.00,Acu-Link.com,2013-05-15 12:25:00,
2013-05-15 05:41:00,48.9,43.7,29.75,WSW,247,2.7,-999.0,82,-99.99,,,0.00,Acu-Link.com,2013-05-15 12:41:00,
2013-05-15 05:56:00,49.8,43.2,29.75,WSW,247,5.8,-999.0,78,-99.99,,,0.00,Acu-Link.com,2013-05-15 12:56:00,
2013-05-15 06:11:00,50.4,43.1,29.75,SW,225,4.2,-999.0,76,-99.99,,,0.00,Acu-Link.com,2013-05-15 13:11:00,
2013-05-15 06:26:00,50.4,44.1,29.77,South,180,2.7,-999.0,79,-99.99,,,0.00,Acu-Link.com,2013-05-15 13:26:00,
2013-05-15 06:41:00,50.7,45.1,29.77,SW,225,0.0,-999.0,81,-99.99,,,0.00,Acu-Link.com,2013-05-15 13:41:00,
2013-05-15 06:57:00,51.4,45.8,29.77,WSW,247,1.7,-999.0,81,-99.99,,,0.00,Acu-Link.com,2013-05-15 13:57:00,
2013-05-15 07:12:00,52.7,43.2,29.78,WSW,247,1.7,-999.0,70,-99.99,,,0.00,Acu-Link.com,2013-05-15 14:12:00,
2013-05-15 08:13:00,55.2,43.6,29.78,West,270,3.2,-999.0,65,-99.99,,,0.00,Acu-Link.com,2013-05-15 15:13:00,
2013-05-15 08:28:00,56.3,44.7,29.78,NE,45,2.7,-999.0,65,-99.99,,,0.00,Acu-Link.com,2013-05-15 15:28:00,
2013-05-15 08:43:00,56.8,44.3,29.78,NNE,22,2.2,-999.0,63,-99.99,,,0.00,Acu-Link.com,2013-05-15 15:43:00,
2013-05-15 08:58:00,57.9,44.1,29.79,West,270,2.7,-999.0,60,-99.99,,,0.00,Acu-Link.com,2013-05-15 15:58:00,
2013-05-15 09:29:00,61.7,44.4,29.78,West,270,4.2,-999.0,53,-99.99,,,0.00,Acu-Link.com,2013-05-15 16:29:00,
2013-05-15 09:44:00,61.3,44.0,29.79,NNE,22,3.2,-999.0,53,-99.99,,,0.00,Acu-Link.com,2013-05-15 16:44:00,
2013-05-15 09:59:00,61.5,43.7,29.80,North,0,5.8,-999.0,52,-99.99,,,0.00,Acu-Link.com,2013-05-15 16:59:00,
2013-05-15 10:30:00,62.6,42.6,29.79,NE,45,5.8,-999.0,48,-99.99,,,0.00,Acu-Link.com,2013-05-15 17:30:00,
2013-05-15 10:45:00,63.9,43.3,29.79,West,270,4.7,-999.0,47,-99.99,,,0.00,Acu-Link.com,2013-05-15 17:45:00,
2013-05-15 11:00:00,63.0,41.9,29.79,NNE,22,6.8,-999.0,46,-99.99,,,0.00,Acu-Link.com,2013-05-15 18:00:00,
2013-05-15 11:15:00,63.3,42.7,29.79,NW,315,6.8,-999.0,47,-99.99,,,0.00,Acu-Link.com,2013-05-15 18:15:00,
2013-05-15 11:30:00,64.8,43.5,29.80,NE,45,8.9,-999.0,46,-99.99,,,0.00,Acu-Link.com,2013-05-15 18:30:00,
2013-05-15 11:46:00,65.1,43.8,29.79,WNW,292,5.3,-999.0,46,-99.99,,,0.00,Acu-Link.com,2013-05-15 18:46:00,
2013-05-15 12:01:00,65.5,43.0,29.78,NNE,22,5.3,-999.0,44,-99.99,,,0.00,Acu-Link.com,2013-05-15 19:01:00,
2013-05-15 12:16:00,65.8,42.7,29.79,North,0,4.7,-999.0,43,-99.99,,,0.00,Acu-Link.com,2013-05-15 19:16:00,
2013-05-15 12:31:00,66.9,43.1,29.78,West,270,9.9,-999.0,42,-99.99,,,0.00,Acu-Link.com,2013-05-15 19:31:00,
2013-05-15 13:02:00,67.3,42.1,29.78,West,270,4.7,-999.0,40,-99.99,,,0.00,Acu-Link.com,2013-05-15 20:02:00,
2013-05-15 13:17:00,67.5,42.3,29.79,SSW,202,3.7,-999.0,40,-99.99,,,0.00,Acu-Link.com,2013-05-15 20:17:00,
2013-05-15 13:32:00,67.6,43.1,29.78,NW,315,8.9,-999.0,41,-99.99,,,0.00,Acu-Link.com,2013-05-15 20:32:00,
2013-05-15 13:47:00,67.1,44.5,29.78,WSW,247,6.8,-999.0,44,-99.99,,,0.00,Acu-Link.com,2013-05-15 20:47:00,
2013-05-15 14:03:00,66.0,44.0,29.78,West,270,6.8,-999.0,45,-99.99,,,0.00,Acu-Link.com,2013-05-15 21:03:00,
2013-05-15 14:18:00,66.4,44.4,29.78,WSW,247,5.3,-999.0,45,-99.99,,,0.00,Acu-Link.com,2013-05-15 21:18:00,
2013-05-15 14:33:00,67.6,44.9,29.78,SW,225,11.4,-999.0,44,-99.99,,,0.00,Acu-Link.com,2013-05-15 21:33:00,
2013-05-15 15:03:00,68.9,45.5,29.78,WNW,292,11.9,-999.0,43,-99.99,,,0.00,Acu-Link.com,2013-05-15 22:03:00,
2013-05-15 15:19:00,68.7,45.9,29.77,South,180,4.7,-999.0,44,-99.99,,,0.00,Acu-Link.com,2013-05-15 22:19:00,
2013-05-15 15:34:00,68.0,45.9,29.78,North,0,5.8,-999.0,45,-99.99,,,0.00,Acu-Link.com,2013-05-15 22:34:00,
2013-05-15 15:49:00,68.2,46.0,29.76,WNW,292,10.9,-999.0,45,-99.99,,,0.00,Acu-Link.com,2013-05-15 22:49:00,
2013-05-15 16:04:00,67.5,46.0,29.76,WNW,292,6.8,-999.0,46,-99.99,,,0.00,Acu-Link.com,2013-05-15 23:04:00,
2013-05-15 16:19:00,68.4,46.2,29.76,WSW,247,6.8,-999.0,45,-99.99,,,0.00,Acu-Link.com,2013-05-15 23:19:00,
2013-05-15 16:35:00,67.1,45.0,29.76,SW,225,3.7,-999.0,45,-99.99,,,0.00,Acu-Link.com,2013-05-15 23:35:00,
2013-05-15 16:50:00,66.9,45.4,29.76,SW,225,11.9,-999.0,46,-99.99,,,0.00,Acu-Link.com,2013-05-15 23:50:00,
2013-05-15 17:05:00,65.8,45.6,29.76,West,270,16.1,-999.0,48,-99.99,,,0.00,Acu-Link.com,2013-05-16 00:05:00,
2013-05-15 17:20:00,64.8,46.8,29.76,NNE,22,12.5,-999.0,52,-99.99,,,0.00,Acu-Link.com,2013-05-16 00:20:00,
2013-05-15 17:51:00,64.2,48.2,29.75,SSW,202,8.3,-999.0,56,-99.99,,,0.00,Acu-Link.com,2013-05-16 00:51:00,
2013-05-15 18:06:00,64.0,48.0,29.74,WSW,247,8.9,-999.0,56,-99.99,,,0.00,Acu-Link.com,2013-05-16 01:06:00,
2013-05-15 18:21:00,62.4,47.4,29.73,SW,225,7.3,-999.0,58,-99.99,,,0.00,Acu-Link.com,2013-05-16 01:21:00,
2013-05-15 18:36:00,61.7,46.8,29.74,WSW,247,10.9,-999.0,58,-99.99,,,0.00,Acu-Link.com,2013-05-16 01:36:00,
2013-05-15 18:52:00,61.2,46.3,29.73,SSW,202,9.4,-999.0,58,-99.99,,,0.00,Acu-Link.com,2013-05-16 01:52:00,
2013-05-15 19:22:00,62.2,46.8,29.74,SSE,157,5.3,-999.0,57,-99.99,,,0.00,Acu-Link.com,2013-05-16 02:22:00,
2013-05-15 19:37:00,59.7,46.2,29.75,WSW,247,6.8,-999.0,61,-99.99,,,0.00,Acu-Link.com,2013-05-16 02:37:00,
2013-05-15 19:52:00,58.1,46.4,29.75,West,270,9.4,-999.0,65,-99.99,,,0.00,Acu-Link.com,2013-05-16 02:52:00,
2013-05-15 20:08:00,57.2,46.3,29.74,WSW,247,10.4,-999.0,67,-99.99,,,0.00,Acu-Link.com,2013-05-16 03:08:00,
2013-05-15 20:23:00,56.8,46.7,29.75,SW,225,7.8,-999.0,69,-99.99,,,0.00,Acu-Link.com,2013-05-16 03:23:00,
2013-05-15 20:38:00,56.8,46.7,29.75,WSW,247,7.8,-999.0,69,-99.99,,,0.00,Acu-Link.com,2013-05-16 03:38:00,
2013-05-15 20:53:00,57.0,46.9,29.75,West,270,8.9,-999.0,69,-99.99,,,0.00,Acu-Link.com,2013-05-16 03:53:00,
2013-05-15 21:09:00,57.0,46.9,29.76,WNW,292,7.3,-999.0,69,-99.99,,,0.00,Acu-Link.com,2013-05-16 04:09:00,
2013-05-15 21:24:00,56.8,47.5,29.76,West,270,11.4,-999.0,71,-99.99,,,0.00,Acu-Link.com,2013-05-16 04:24:00,
2013-05-15 21:39:00,56.1,47.9,29.76,WSW,247,4.2,-999.0,74,-99.99,,,0.00,Acu-Link.com,2013-05-16 04:39:00,
2013-05-15 21:54:00,55.2,48.1,29.75,WNW,292,4.7,-999.0,77,-99.99,,,0.00,Acu-Link.com,2013-05-16 04:54:00,
2013-05-15 22:09:00,54.9,48.5,29.76,West,270,7.8,-999.0,79,-99.99,,,0.00,Acu-Link.com,2013-05-16 05:09:00,
2013-05-15 22:25:00,55.0,48.6,29.76,WSW,247,8.3,-999.0,79,-99.99,,,0.00,Acu-Link.com,2013-05-16 05:25:00,
2013-05-15 22:40:00,55.0,48.6,29.77,SW,225,11.4,-999.0,79,-99.99,,,0.00,Acu-Link.com,2013-05-16 05:40:00,
2013-05-15 22:55:00,54.5,48.8,29.77,WSW,247,6.8,-999.0,81,-99.99,,,0.00,Acu-Link.com,2013-05-16 05:55:00,
2013-05-15 23:10:00,54.7,49.0,29.76,West,270,6.3,-999.0,81,-99.99,,,0.00,Acu-Link.com,2013-05-16 06:10:00,
2013-05-15 23:25:00,54.7,49.3,29.76,WSW,247,4.7,-999.0,82,-99.99,,,0.00,Acu-Link.com,2013-05-16 06:25:00,
2013-05-15 23:41:00,54.3,49.6,29.76,SW,225,4.7,-999.0,84,-99.99,,,0.00,Acu-Link.com,2013-05-16 06:41:00,
2013-05-15 23:56:00,54.9,49.8,29.76,West,270,4.7,-999.0,83,-99.99,,,0.00,Acu-Link.com,2013-05-16 06:56:00,